Zurück zum Katalog

CZ-6A DEB

AktivPO
NORAD 60885·DEBRIS·🇨🇳 China

Gestartet Aug 6, 2024 von Taiyuan Satellite Launch Center

Loading…

Nächste Überflüge (nächste 24 Stunden)

TLE

AktuellSource: Space-Track

Epoche: Sep 14, 2026, 06:36 UTC

1 60885U 24140KQ  26257.27503495  .00000697  00000-0  24093-3 0  9998
2 60885  88.9681 260.0700 0037093 314.6425  45.1750 14.34375564108385

Verfolge CZ-6A DEB in Echtzeit mit AllMySat

Download on the App Store